Temp
-3 -3 -3 -3 -3 -3 -3 -3 -3 -3 -3 -3 -2 -2 -2 -2 -1 -1 -1 -1 -1 -2 -2 -2 -3 -3 -3 -3 -3 -4 -4 -4 -4 -3 -3 -3 -3 -3 -3 -3 -3 -3
-4 -4 -3 -3 -3 -3 -3 -3 -3 -3 -3 -3 -3 -3 -3 -3 -2 -2 -2 -2 -2 -1 -1 -2 -2 -2 -2 -3 -3 -3 -4 -4 -4 -4 -4 -4 -4 -4 -3 -3 -3 -3
-5 -4 -4 -4 -4 -4 -4 -4 -4 -4 -4 -3 -3 -3 -3 -3 -3 -3 -3 -2 -2 -2 -2 -2 -2 -2 -2 -2 -3 -3 -3 -4 -4 -4 -5 -4 -4 -4 -4 -4 -4 -4
-6 -6 -5 -5 -5 -5 -5 -5 -4 -4 -4 -4 -4 -4 -4 -3 -3 -3 -3 -3 -3 -3 -3 -2 -2 -2 -2 -2 -2 -2 -3 -3 -3 -4 -4 -5 -5 -5 -5 -5 -4 -4
-7 -7 -7 -6 -6 -6 -6 -5 -5 -5 -5 -5 -5 -4 -4 -4 -4 -4 -3 -3 -3 -3 -3 -3 -3 -3 -3 -3 -2 -2 -2 -3 -3 -3 -4 -4 -4 -5 -5 -5 -5 -5
-8 -8 -8 -7 -7 -7 -7 -6 -6 -6 -6 -6 -5 -5 -5 -5 -5 -4 -4 -4 -4 -4 -4 -4 -4 -4 -3 -3 -3 -3 -3 -3 -3 -4 -4 -4 -4 -5 -5 -5 -5 -5
-9 -8 -8 -8 -8 -8 -8 -7 -7 -7 -7 -6 -6 -6 -6 -6 -6 -6 -5 -5 -5 -5 -5 -5 -5 -5 -4 -4 -4 -4 -4 -4 -4 -4 -4 -4 -4 -5 -5 -5 -5 -5
-9 -9 -9 -9 -9 -9 -8 -8 -8 -8 -7 -7 -7 -7 -7 -7 -7 -7 -6 -6 -6 -6 -6 -6 -6 -6 -6 -6 -6 -5 -5 -5 -5 -5 -5 -5 -5 -5 -5 -6 -6 -5
-10 -10 -10 -9 -9 -9 -9 -9 -8 -8 -8 -8 -8 -8 -7 -7 -7 -7 -7 -7 -7 -7 -7 -7 -7 -7 -7 -7 -7 -6 -6 -6 -6 -6 -6 -6 -6 -6 -6 -6 -6 -6
-11 -11 -10 -10 -10 -10 -10 -9 -9 -9 -9 -9 -8 -8 -8 -8 -8 -8 -8 -8 -8 -8 -8 -7 -8 -7 -7 -7 -7 -7 -7 -7 -7 -7 -7 -7 -7 -7 -7 -7 -7 -7
-11 -11 -11 -11 -11 -11 -10 -10 -10 -10 -10 -9 -9 -9 -9 -9 -8 -8 -8 -8 -8 -8 -8 -8 -8 -8 -8 -8 -8 -8 -8 -8 -8 -8 -8 -7 -7 -7 -7 -7 -8 -7
-12 -12 -12 -12 -12 -12 -11 -11 -11 -11 -11 -10 -10 -10 -10 -10 -10 -9 -9 -9 -9 -9 -9 -9 -9 -9 -9 -9 -9 -9 -9 -9 -8 -8 -8 -8 -8 -8 -8 -8 -8 -8
-13 -13 -13 -13 -12 -12 -12 -12 -12 -12 -12 -12 -11 -11 -11 -11 -11 -11 -11 -11 -11 -10 -10 -10 -10 -10 -10 -10 -9 -9 -9 -9 -9 -9 -9 -9 -9 -9 -9 -9 -9 -8
-14 -14 -13 -13 -13 -13 -13 -13 -13 -13 -13 -13 -13 -12 -12 -12 -12 -12 -12 -12 -12 -12 -12 -12 -11 -11 -11 -11 -11 -10 -10 -10 -10 -10 -10 -9 -9 -9 -9 -9 -9 -9
-14 -14 -14 -14 -14 -14 -14 -14 -14 -14 -13 -13 -14 -14 -14 -14 -13 -13 -13 -13 -13 -13 -13 -13 -13 -12 -12 -12 -12 -12 -12 -12 -12 -11 -11 -11 -11 -10 -10 -10 -10 -10
-15 -15 -14 -14 -14 -14 -15 -15 -14 -14 -14 -14 -14 -14 -14 -15 -15 -14 -14 -14 -14 -14 -14 -14 -14 -14 -13 -13 -13 -14 -14 -13 -13 -13 -13 -13 -12 -12 -12 -12 -11 -11
-16 -15 -15 -15 -15 -15 -15 -15 -15 -15 -15 -15 -15 -15 -15 -15 -15 -15 -15 -15 -15 -15 -15 -15 -15 -14 -14 -14 -14 -14 -14 -14 -14 -14 -14 -14 -14 -13 -13 -13 -13 -12
-16 -16 -16 -16 -16 -16 -16 -16 -16 -16 -16 -16 -16 -16 -16 -16 -16 -16 -16 -16 -16 -16 -15 -15 -15 -15 -15 -15 -15 -14 -15 -15 -14 -14 -14 -14 -14 -14 -14 -13 -13 -13
-17 -16 -16 -16 -16 -16 -16 -16 -16 -16 -16 -16 -16 -16 -16 -16 -16 -16 -16 -16 -16 -16 -16 -16 -16 -15 -15 -15 -15 -15 -15 -15 -15 -15 -15 -15 -15 -15 -14 -14 -14 -14
-17 -17 -17 -17 -17 -17 -17 -17 -17 -17 -17 -17 -17 -17 -16 -16 -16 -16 -16 -16 -16 -16 -16 -16 -16 -16 -16 -16 -16 -16 -16 -16 -16 -16 -16 -16 -15 -15 -15 -15 -15 -15
-17 -17 -17 -17 -17 -17 -17 -17 -17 -17 -17 -17 -17 -17 -17 -17 -17 -17 -17 -17 -16 -16 -16 -16 -16 -16 -16 -16 -17 -17 -17 -17 -17 -17 -16 -16 -16 -16 -16 -16 -16 -16
-17 -17 -17 -18 -18 -18 -18 -18 -18 -18 -18 -17 -17 -17 -17 -17 -17 -17 -17 -17 -17 -17 -16 -16 -17 -17 -17 -17 -17 -17 -18 -18 -18 -18 -17 -16 -16 -16 -17 -17 -17 -16
-18 -18 -18 -18 -18 -18 -18 -18 -18 -18 -18 -18 -18 -18 -18 -18 -18 -18 -18 -17 -17 -17 -17 -17 -17 -17 -17 -17 -17 -18 -18 -18 -19 -19 -18 -17 -17 -18 -18 -18 -17 -16
-18 -18 -18 -18 -19 -19 -18 -18 -18 -18 -18 -18 -18 -18 -18 -18 -18 -18 -18 -18 -18 -18 -18 -18 -18 -18 -18 -18 -18 -18 -19 -19 -19 -20 -19 -18 -19 -20 -19 -18 -17 -17
-18 -18 -19 -19 -19 -19 -19 -19 -19 -18 -19 -18 -18 -19 -18 -18 -18 -18 -19 -19 -19 -19 -18 -18 -18 -18 -18 -18 -18 -18 -19 -20 -20 -20 -20 -20 -20 -21 -20 -19 -18 -18
-19 -19 -19 -19 -19 -19 -19 -19 -19 -19 -19 -19 -19 -19 -19 -19 -19 -19 -19 -19 -19 -19 -19 -19 -18 -18 -18 -19 -19 -19 -19 -20 -20 -21 -21 -21 -21 -21 -21 -20 -19 -19
Height
1470 1468 1466 1465 1464 1463 1463 1462 1461 1461 1460 1460 1460 1459 1459 1459 1459 1459 1459 1459 1459 1460 1460 1460 1460 1461 1461 1461 1462 1462 1462 1463 1463 1464 1464 1464 1464 1464 1464 1464 1465 1466
1470 1468 1466 1464 1463 1462 1461 1460 1459 1458 1458 1457 1456 1456 1455 1455 1455 1455 1455 1455 1455 1455 1455 1456 1456 1456 1456 1456 1456 1456 1457 1457 1458 1459 1459 1459 1459 1459 1459 1459 1460 1461
1469 1467 1465 1463 1462 1461 1460 1459 1458 1456 1456 1455 1454 1453 1452 1451 1451 1451 1451 1451 1451 1451 1451 1451 1451 1451 1452 1452 1452 1451 1451 1452 1452 1454 1454 1454 1455 1454 1454 1454 1454 1455
1468 1466 1464 1462 1460 1459 1458 1457 1456 1455 1454 1453 1452 1451 1450 1449 1448 1448 1448 1447 1447 1447 1447 1447 1447 1447 1447 1447 1447 1447 1446 1447 1447 1449 1449 1448 1449 1449 1449 1450 1449 1449
1466 1464 1462 1460 1458 1458 1456 1455 1454 1453 1452 1451 1450 1448 1447 1447 1446 1445 1445 1444 1444 1444 1443 1444 1443 1443 1443 1443 1443 1442 1442 1442 1442 1443 1443 1443 1444 1444 1444 1445 1444 1444
1464 1462 1460 1458 1456 1455 1454 1453 1452 1450 1449 1448 1447 1446 1445 1444 1443 1442 1442 1441 1441 1440 1440 1440 1440 1440 1440 1439 1439 1438 1438 1438 1438 1438 1438 1438 1439 1439 1439 1439 1439 1439
1462 1459 1458 1456 1455 1453 1452 1451 1449 1447 1446 1445 1443 1442 1441 1441 1440 1439 1439 1438 1438 1437 1437 1437 1436 1436 1436 1436 1435 1434 1434 1434 1434 1434 1434 1433 1434 1434 1433 1433 1433 1433
1459 1457 1455 1454 1452 1451 1449 1448 1446 1445 1443 1441 1440 1439 1438 1437 1436 1436 1435 1434 1434 1434 1433 1433 1433 1433 1432 1432 1431 1430 1430 1430 1430 1430 1430 1429 1429 1428 1428 1429 1428 1428
1456 1455 1453 1451 1450 1448 1446 1445 1443 1441 1440 1438 1437 1436 1435 1434 1433 1432 1431 1431 1430 1430 1429 1429 1428 1428 1428 1427 1427 1426 1426 1426 1426 1425 1425 1424 1424 1423 1423 1424 1423 1423
1454 1452 1451 1449 1447 1445 1443 1441 1439 1438 1436 1435 1433 1432 1431 1430 1429 1428 1428 1427 1426 1425 1425 1424 1424 1423 1424 1423 1423 1423 1422 1422 1421 1421 1420 1419 1419 1418 1418 1418 1418 1417
1452 1450 1448 1446 1444 1442 1440 1438 1436 1434 1433 1431 1430 1429 1428 1427 1426 1425 1424 1423 1422 1422 1421 1421 1420 1420 1420 1420 1420 1419 1418 1418 1417 1416 1415 1415 1415 1414 1414 1414 1413 1412
1450 1448 1445 1443 1441 1439 1437 1435 1433 1431 1429 1428 1426 1425 1424 1423 1422 1421 1420 1420 1419 1419 1418 1418 1418 1417 1417 1416 1416 1415 1414 1413 1412 1411 1411 1411 1411 1410 1410 1409 1409 1408
1447 1445 1443 1441 1439 1436 1434 1432 1430 1428 1426 1425 1424 1422 1421 1420 1419 1418 1417 1417 1416 1415 1415 1414 1414 1414 1413 1412 1411 1410 1410 1409 1408 1408 1407 1407 1407 1406 1406 1405 1404 1404
1444 1442 1440 1438 1436 1434 1432 1430 1428 1426 1424 1422 1421 1419 1418 1417 1416 1415 1414 1413 1412 1411 1411 1410 1410 1409 1409 1408 1407 1407 1406 1406 1405 1405 1404 1403 1403 1402 1401 1401 1400 1400
1441 1439 1437 1435 1433 1431 1429 1427 1425 1423 1421 1420 1418 1417 1415 1414 1413 1412 1411 1410 1409 1408 1408 1407 1406 1406 1406 1405 1405 1405 1404 1403 1402 1401 1400 1400 1399 1398 1397 1396 1396 1396
1439 1437 1435 1432 1430 1428 1426 1425 1423 1421 1419 1418 1416 1414 1413 1412 1410 1409 1408 1407 1407 1406 1406 1405 1404 1404 1404 1403 1403 1403 1402 1401 1399 1398 1397 1396 1395 1394 1393 1392 1392 1392
1436 1434 1432 1430 1428 1426 1424 1422 1420 1419 1417 1416 1414 1413 1411 1410 1408 1407 1406 1405 1404 1404 1403 1403 1402 1401 1401 1401 1400 1400 1400 1398 1396 1395 1394 1393 1391 1390 1389 1389 1388 1388
1433 1431 1429 1427 1425 1423 1422 1420 1418 1416 1415 1413 1412 1411 1409 1408 1406 1405 1404 1403 1402 1401 1401 1400 1399 1399 1398 1397 1397 1397 1396 1394 1392 1391 1390 1389 1388 1387 1386 1385 1384 1384
1431 1428 1426 1424 1422 1421 1419 1417 1416 1414 1412 1411 1410 1408 1407 1406 1404 1403 1402 1400 1399 1399 1398 1397 1396 1396 1395 1394 1393 1393 1393 1391 1388 1387 1387 1386 1385 1384 1383 1382 1381 1380
1428 1425 1423 1421 1420 1418 1416 1415 1413 1412 1410 1409 1407 1406 1405 1403 1402 1401 1399 1398 1397 1397 1396 1395 1394 1393 1392 1391 1391 1390 1390 1388 1384 1383 1384 1383 1382 1381 1380 1379 1378 1377
1424 1422 1420 1418 1417 1415 1414 1412 1411 1409 1408 1406 1405 1404 1402 1401 1399 1398 1397 1396 1395 1394 1394 1392 1391 1391 1390 1389 1388 1388 1387 1385 1381 1380 1381 1380 1379 1378 1377 1376 1375 1374
1421 1419 1417 1415 1414 1412 1411 1410 1408 1407 1405 1404 1403 1401 1400 1399 1397 1396 1395 1394 1393 1392 1391 1390 1389 1388 1388 1387 1386 1385 1383 1381 1379 1378 1377 1377 1376 1375 1374 1373 1372 1372
1418 1415 1414 1412 1411 1409 1408 1407 1406 1404 1403 1401 1400 1399 1398 1396 1395 1394 1392 1391 1390 1390 1389 1388 1387 1386 1386 1384 1383 1382 1380 1378 1377 1376 1375 1374 1373 1372 1371 1371 1370 1370
1415 1412 1410 1409 1408 1406 1405 1404 1403 1402 1400 1399 1398 1397 1395 1394 1393 1392 1390 1389 1388 1387 1387 1386 1385 1384 1384 1382 1381 1380 1378 1376 1375 1374 1373 1372 1371 1370 1369 1369 1368 1367
1412 1410 1408 1406 1405 1404 1402 1402 1400 1399 1398 1396 1395 1394 1393 1392 1391 1390 1388 1387 1386 1385 1385 1384 1384 1383 1382 1380 1379 1378 1377 1375 1373 1372 1371 1371 1370 1368 1367 1366 1365 1364
1409 1407 1405 1404 1403 1401 1400 1399 1398 1397 1395 1394 1393 1392 1391 1390 1389 1388 1387 1386 1385 1384 1383 1382 1382 1381 1380 1379 1378 1377 1375 1374 1372 1371 1370 1369 1368 1366 1365 1364 1363 1362
Wind_Speed
10 9 8 7 8 9 11 14 17 19 20 22 24 25 26 27 28 29 30 30 30 30 29 29 28 28 28 28 28 30 32 34 36 36 37 37 37 37 37 38 38 39
11 9 9 8 8 8 8 8 10 11 13 15 17 19 21 22 24 25 27 28 30 30 30 30 30 30 29 28 28 29 30 32 34 35 36 37 37 37 38 38 38 37
12 12 11 10 10 10 10 10 10 10 11 11 12 14 15 16 18 19 21 23 25 26 27 28 29 29 30 30 30 30 31 31 32 33 35 36 36 37 38 37 37 38
15 14 13 12 11 11 12 12 12 12 12 12 13 13 14 14 15 16 17 18 19 21 22 24 25 26 28 29 29 31 32 32 32 32 33 35 35 36 37 38 38 38
18 16 15 14 13 13 13 13 14 14 14 14 14 15 15 15 16 16 17 18 18 19 20 21 22 23 24 26 27 29 30 31 32 32 33 34 34 35 36 37 38 38
19 18 17 16 15 14 14 14 15 15 15 15 15 16 16 17 17 18 18 18 19 19 20 21 21 22 23 24 25 27 29 30 31 31 33 34 34 34 36 36 37 38
21 20 18 18 17 16 16 16 16 16 16 17 16 17 17 17 18 18 19 19 20 20 20 21 21 22 22 23 24 26 27 28 29 30 32 33 33 33 35 36 37 37
24 22 21 19 18 18 17 17 17 17 17 17 17 17 18 18 19 19 19 20 20 20 21 21 21 22 22 22 23 24 25 26 27 28 30 31 32 33 34 34 35 37
26 24 23 22 20 19 19 18 18 18 18 18 18 18 18 18 19 20 20 20 20 21 21 21 22 22 22 23 24 24 25 25 26 27 28 29 30 31 32 32 33 35
27 26 24 23 23 22 21 20 20 19 19 19 19 19 19 19 19 20 20 20 21 21 22 22 22 23 23 23 24 24 25 26 26 27 28 29 30 30 30 30 31 34
26 27 26 25 24 24 23 22 21 21 20 20 20 20 20 20 19 20 20 20 21 21 22 22 23 23 23 23 23 24 24 25 26 27 28 29 30 30 31 30 31 33
28 28 27 26 26 25 25 24 23 22 21 21 21 20 20 20 20 19 19 20 20 20 21 22 22 22 23 23 24 24 24 25 26 26 27 28 29 30 30 30 31 32
29 30 28 27 26 25 25 24 23 23 22 21 20 20 20 20 19 19 19 19 19 19 19 20 20 21 22 22 23 23 24 25 26 26 27 28 29 29 29 30 31 32
32 32 29 28 27 26 24 23 23 22 21 20 19 19 19 18 18 18 18 18 18 18 18 18 19 19 19 20 20 21 21 23 24 25 27 28 28 29 29 29 30 31
33 32 31 29 28 26 24 22 22 21 20 19 18 18 18 17 17 17 17 17 17 17 17 17 17 16 16 16 16 16 17 19 21 22 23 24 24 25 26 27 28 29
34 32 31 30 28 26 24 22 21 20 19 18 17 17 16 16 16 15 15 16 15 15 14 14 14 13 13 12 11 10 13 15 17 18 18 18 19 21 23 24 25 26
33 32 30 28 26 25 23 22 21 19 18 17 16 15 15 14 15 14 14 15 14 13 13 12 11 11 10 10 9 8 10 14 16 16 17 18 19 21 23 24 25 26
33 32 30 28 25 23 21 20 19 18 17 16 15 14 14 13 13 13 13 14 13 12 12 11 11 10 9 10 10 7 8 16 18 17 18 19 21 23 24 24 25 26
33 32 29 27 23 21 20 18 17 17 16 16 14 14 13 12 13 13 12 13 13 12 11 11 10 10 9 9 9 6 7 16 21 19 19 20 21 22 23 23 24 25
33 31 28 25 22 20 18 17 16 16 16 15 15 14 13 13 12 12 12 13 13 12 12 11 10 10 9 10 10 7 7 16 22 22 20 21 21 21 21 22 22 23
34 31 27 24 21 19 18 16 16 15 15 15 14 14 14 13 13 13 12 13 13 12 12 11 11 10 10 9 10 9 9 15 21 23 21 19 19 20 20 21 21 21
33 30 27 23 20 19 17 16 15 15 15 14 13 13 13 13 13 13 13 13 13 13 12 12 11 11 10 10 9 9 11 15 18 20 20 18 18 19 19 19 20 20
32 29 26 22 20 19 17 16 15 15 15 14 13 13 13 12 12 13 13 13 13 13 13 12 12 12 11 11 11 11 13 16 16 17 19 20 19 18 17 18 19 19
31 27 24 22 20 19 17 16 15 15 15 14 13 13 13 12 12 12 13 13 13 13 13 13 13 13 12 12 12 12 13 16 16 16 19 19 16 15 17 20 21 20
28 25 22 21 20 19 18 16 15 15 14 14 13 12 12 12 11 11 12 12 13 13 14 13 13 13 12 12 12 12 12 14 15 16 17 16 14 16 20 23 23 22
25 23 21 20 19 18 17 16 15 15 14 13 12 11 11 11 11 11 12 12 13 13 14 14 13 12 12 12 12 12 12 13 14 14 14 14 15 20 23 24 25 24
Wind_Direction
5 0 353 336 315 300 289 280 276 274 272 271 270 268 268 267 266 265 265 265 264 264 263 262 262 261 261 262 263 265 265 266 265 264 264 262 261 259 259 259 258 259
352 349 347 340 332 326 317 305 295 288 282 276 273 271 269 268 266 265 264 263 263 262 261 259 258 257 256 255 256 258 260 263 265 265 265 263 262 261 260 259 259 258
345 341 336 329 324 320 316 312 308 302 297 290 283 280 276 273 271 268 267 266 266 265 263 261 259 256 255 254 253 254 255 257 261 264 266 266 265 264 263 262 261 259
342 338 333 329 321 315 310 306 302 297 294 290 286 284 281 278 276 273 272 270 268 268 268 266 265 262 260 257 255 254 254 255 256 259 262 264 265 265 265 264 263 261
340 336 332 328 321 314 308 302 298 294 290 287 285 283 282 279 277 275 273 273 271 270 269 269 268 267 266 263 260 258 257 256 256 256 258 259 262 264 265 265 264 263
337 334 330 326 321 316 310 304 299 295 291 288 284 282 281 279 278 276 274 274 273 272 272 270 270 268 267 266 264 262 260 258 257 256 256 257 258 260 263 264 264 264
337 334 331 327 323 318 312 307 302 298 295 292 289 287 284 281 279 278 276 275 273 273 273 272 271 270 268 267 266 265 264 262 259 257 256 257 257 257 259 261 263 263
336 334 332 329 326 321 316 311 307 303 300 296 294 292 289 287 284 282 280 279 277 276 274 273 273 272 270 269 268 268 267 266 264 261 260 259 258 257 258 259 261 262
334 334 332 330 327 323 320 317 313 310 306 302 299 296 293 292 289 288 285 283 282 280 279 277 276 275 274 272 271 270 269 268 267 266 265 264 263 262 261 261 262 263
333 332 331 330 328 326 324 321 318 315 311 308 304 301 298 295 292 291 289 287 286 284 283 281 280 278 276 274 272 271 270 269 269 268 268 268 268 267 266 264 264 265
331 333 332 330 329 327 325 324 322 319 316 313 309 306 302 299 295 293 291 289 287 285 283 282 281 279 278 276 274 273 272 272 271 271 271 270 270 270 270 269 267 267
331 332 332 330 329 327 326 324 323 321 319 316 313 310 307 304 301 297 294 290 287 284 282 280 279 278 278 277 276 275 274 274 274 273 273 272 271 271 271 271 271 271
331 331 331 330 328 327 326 324 323 320 319 317 314 311 309 307 305 302 299 296 292 289 286 283 282 280 279 278 277 276 275 274 274 273 273 273 272 272 272 271 271 271
328 329 330 329 327 326 325 322 320 319 317 317 315 312 310 307 305 303 301 299 297 296 294 291 289 286 284 283 281 280 278 275 273 271 271 271 271 272 272 271 271 271
326 327 328 328 327 325 323 320 318 316 316 316 315 313 312 310 308 305 302 300 298 297 296 295 293 291 290 289 287 288 287 283 280 277 276 277 275 274 273 271 272 272
324 325 326 326 324 323 322 319 318 315 314 314 313 313 313 311 310 307 304 303 301 299 297 294 293 292 290 287 285 294 300 295 288 285 281 278 277 275 275 274 273 272
323 324 325 324 321 320 319 317 317 316 315 314 313 312 312 311 310 308 306 305 305 305 303 300 297 293 288 281 273 282 308 303 289 283 280 275 276 278 278 280 279 277
323 323 323 322 319 317 315 314 315 315 315 315 314 313 313 313 312 311 310 309 310 312 311 309 306 299 291 285 272 267 311 308 291 282 281 278 279 282 283 284 284 283
323 322 322 320 317 315 314 313 313 313 313 314 315 315 315 315 315 314 315 314 315 319 319 316 315 310 301 296 282 263 305 311 297 286 283 281 281 284 286 286 287 287
322 321 319 317 315 313 312 311 311 311 312 312 314 315 315 316 316 315 317 317 316 322 325 320 321 318 310 307 296 276 297 310 299 288 285 285 286 288 289 289 289 289
320 319 317 315 313 311 310 310 310 309 309 310 313 315 316 318 318 317 318 318 317 323 325 321 321 321 314 310 300 290 299 305 298 292 292 292 292 292 292 291 291 291
318 316 314 312 311 310 309 308 309 308 309 310 312 314 317 319 320 319 318 318 320 323 324 321 320 320 317 311 302 301 301 296 297 302 303 301 300 300 298 295 295 295
316 313 312 310 310 309 309 308 308 309 310 312 313 315 317 318 319 320 319 321 322 322 321 321 321 320 321 316 307 308 305 301 305 310 308 309 312 310 305 301 299 298
314 310 308 308 308 308 309 309 309 309 311 312 315 317 318 319 321 320 320 322 322 321 321 324 325 325 324 320 313 310 310 310 313 311 310 315 318 311 307 305 303 302
311 307 305 305 306 307 308 309 309 310 311 313 316 318 318 320 322 321 321 321 320 320 322 324 329 329 324 320 317 314 316 319 317 315 318 322 313 303 305 307 306 309
307 303 302 303 304 305 307 309 309 310 312 313 316 317 317 319 322 320 319 319 318 319 322 325 328 327 322 318 316 314 318 320 318 320 326 321 305 300 303 304 307 310